Location: Caltech
(34.1382°N, 118.1253°W)
Time: 13:36:21
(UTC-08:00)

Cosmos 1975 - Visible Passes

Search period start: 06 March 2015 00:00
Search period end: 16 March 2015 01:00
Orbit: 551 x 569 km, 82.5° (Epoch: 05 March)

Date Brightness Start Highest point End Pass type
(mag) Time Alt. Az. Time Alt. Az. Time Alt. Az.
06 Mar 2.8 05:24:29 10° NNW 05:28:35 71° W 05:32:37 10° S visible
07 Mar 2.9 05:23:30 10° NNW 05:27:32 57° W 05:31:31 10° S visible
08 Mar 6.4 04:49:15 10° ENE 04:49:27 10° ENE 04:49:56 10° ENE visible
08 Mar 3.1 06:22:33 10° NNW 06:26:29 46° W 06:30:22 10° SSW visible
09 Mar 6.2 04:46:53 10° NE 04:48:31 12° ENE 04:50:21 10° E visible
09 Mar 3.3 06:21:37 10° NNW 06:25:26 37° W 06:29:10 10° SSW visible
10 Mar 5.9 04:45:17 10° NE 04:47:33 15° ENE 04:50:00 10° ESE visible
10 Mar 3.6 06:20:43 10° NNW 06:24:21 30° W 06:27:54 10° SSW visible
11 Mar 5.6 04:43:50 10° NNE 04:46:35 18° ENE 04:49:27 10° ESE visible
11 Mar 3.8 06:19:51 10° NW 06:23:17 25° W 06:26:36 10° SW visible
12 Mar 5.3 04:42:29 10° NNE 04:45:36 21° ENE 04:48:47 10° SE visible
12 Mar 4.1 06:19:03 10° NW 06:22:11 21° W 06:25:12 10° SW visible
13 Mar 5.0 04:41:12 10° NNE 04:44:36 25° ENE 04:48:02 10° SE visible
13 Mar 4.3 06:18:18 10° NW 06:21:05 17° W 06:23:43 10° SW visible
14 Mar 4.6 04:39:58 10° NNE 04:43:34 31° ENE 04:47:12 10° SE visible
14 Mar 4.5 06:17:40 10° NW 06:19:59 14° W 06:22:06 10° WSW visible
15 Mar 4.8 04:38:45 10° N 04:40:58 26° NE 04:40:58 26° NE visible
